Location: Saluda
(35.2377°N, 82.3468°W)
Time: 16:50:04
(UTC+00:00)

Transit 2A - Pass Details

Date: 10 October 2022
Orbit: 598 x 959 km, 66.7° (Epoch: 06 December)

Event Time Altitude Azimuth Distance (km) Brightness Sun altitude
Rises 10:20:46 0° 353° (N) 2,997 9.0 -15.2°
Reaches altitude 10° 10:24:04 10° 18° (NNE) 2,149 8.6 -14.5°
Maximum altitude 10:26:44 14° 51° (NE) 1,917 8.8 -14.0°
Drops below altitude 10° 10:29:31 10° 84° (E) 2,268 9.9 -13.4°
Sets 10:33:09 0° 108° (ESE) 3,279 10.8 -12.7°
